Regional Weather Roundup
Issued by NWS

Home | Current Version | Previous Version | Text Only | Print | Product List | Glossary On
Versions: 1 2 3 4 5 6 7 8 9 10 11 12 13 14 15 16 17 18 19 20 21 22 23 24 25 26 27 28 29 30 31 32 33 34 35 36 37 38 39 40 41 42 43 44 45 46 47 48 49 50
000
ASUS44 KOUN 200800
RWROK

WEATHER ROUNDUP FOR OKLAHOMA
NATIONAL WEATHER SERVICE NORMAN OK
200 AM CST SAT JAN 20 2018

NOTE: "FAIR" INDICATES FEW OR NO CLOUDS BELOW 12,000 FEET WITH NO
      SIGNIFICANT WEATHER AND/OR OBSTRUCTIONS TO VISIBILITY.

OKZ001>007-009>012-014-015-017-200900-
NORTHWEST OKLAHOMA AND THE PANHANDLE

CITY           SKY/WX    TMP DP  RH WIND       PRES   REMARKS
GAGE           CLOUDY    48  23  37 S21G28    29.72F
GUYMON         CLOUDY    33  15  47 CALM      29.70F
$$

OKZ016-021>023-033>039-044-045-200900-
SOUTHWEST OKLAHOMA

CITY           SKY/WX    TMP DP  RH WIND       PRES   REMARKS
LAWTON/REGL    CLOUDY    46  46 100 S8        29.90F
LAWTON/FT SILL CLOUDY    46  46 100 SE6       29.88F
FREDERICK      CLOUDY    49  46  90 S20       29.84F
CLINTON        CLOUDY    45  42  89 S29G36    29.79F
HOBART         CLOUDY    47  44  90 S22       29.84S
ALTUS AFB      CLOUDY    46  43  89 SE12      29.84F
$$

OKZ018>020-024>031-200900-
CENTRAL OKLAHOMA

CITY           SKY/WX    TMP DP  RH WIND       PRES   REMARKS
OKLAHOMA CITY  CLOUDY    51  47  86 S20G31    29.88F
OKC/WILEY POST CLOUDY    52  48  86 S25G32    29.86F
OKC/TINKER AFB CLOUDY    51  47  87 S18       29.89S
STILLWATER     CLOUDY    51  44  77 S14       29.86F
GUTHRIE        CLOUDY    51  47  86 S22G29    29.86F
$$

OKZ008-013-054>072-200900-
NORTHEAST OKLAHOMA

CITY           SKY/WX    TMP DP  RH WIND       PRES   REMARKS
TULSA          CLOUDY    51  44  77 S16G25    29.92F
TULSA/JONES    CLOUDY    51  43  74 S14G24    29.93F
PONCA CITY     CLOUDY    49  43  80 S10       29.84F
BARTLESVILLE   CLOUDY    48  42  80 S8        29.92S
MUSKOGEE       CLOUDY    50  39  66 S8        29.99F
$$

OKZ032-040>043-046>053-073>077-200900-
SOUTH CENTRAL/SOUTHEAST OKLAHOMA

CITY           SKY/WX    TMP DP  RH WIND       PRES   REMARKS
MCALESTER      CLOUDY    50  43  77 S12G24    30.00F
$$




USA.gov is the U.S. government's official web portal to all federal, state and local government web resources and services.